sat.trackr.live / text

‹ back to catalog

STARLINK-37453

NORAD 68862 · 2026-094Z

PAYLOAD ACTIVE UNKNOWN

§ Identity

Operator
Country
US
Launch date
2026-04-26
Launch site
AFWTR
Launch vehicle
Mass (kg)
RCS (m²)

Purposes: comms

External: N2YO · Heavens-Above · Gunter

§ Orbital elements

Epoch: 2026-09-20T04:30:02.211840Z

Period
93.90 min
Inclination
97.2832°
Eccentricity
0.0001477
Mean motion
15.33489080 rev/d
Perigee alt
464.4 km
Apogee alt
466.4 km
Semi-major
6,843.5 km
B*
8.0952e-4
RAAN
276.3732°
Arg perigee
89.5539°
Mean anomaly
270.5873°
Rev number
2,261

§ Raw data

STARLINK-374531 68862U 26094Z   26263.18752560  .00026187  00000+0  80952-3 0  99942 68862  97.2832 276.3732 0001477  89.5539 270.5873 15.33489080 22615

JSON: /api/v1/satellites/68862 · /tle

For live sub-satellite position, see the globe view (requires WebGL).

§ Visibility from observer

Set your observer location to see the next 7 days of passes ≥ 10°. The values pass through the URL so the page stays shareable.

No JS? Fill the form by hand. The geolocation button needs JavaScript.